Flight Track Log - Related Links

Times and Time Zones

All times are in EDT time to prevent confusion due to time zone crossing. See the SWA36 flight status page for this flight to view local times or setup timezone preferences in your user account.

Time Position Orientation Groundspeed Altitude Reporting Facility
EDT Latitude Longitude Course Direction KTS MPH feet Rate Location/Type
Sun 05:44:18 PM 32.9000 -96.9167 308° West 217 250 4,100  Level Dallas / Fort Worth TRACON
Sun 05:45:18 PM 32.9500 -96.9833 312° West 272 313 6,800 2,756 Climbing Dallas / Fort Worth TRACON
Sun 05:47:47 PM 32.9542 -97.2128 271° West 295 339 13,700 2,641 Climbing Fort Worth Center
Sun 05:48:47 PM 32.9606 -97.3317 274° West 334 384 16,000 2,550 Climbing Fort Worth Center
Sun 05:49:47 PM 32.9669 -97.4481 274° West 357 411 18,800 2,250 Climbing Fort Worth Center
Sun 05:50:47 PM 32.9731 -97.5719 273° West 368 423 20,500 1,900 Climbing Fort Worth Center
Sun 05:51:47 PM 32.9792 -97.7006 273° West 388 447 22,600 1,667 Climbing Fort Worth Center
Sun 05:53:00 PM 32.9994 -97.8379 282° West  Level FlightAware Approximate
Sun 05:53:47 PM 33.0200 -97.9461 282° West 398 458 25,500  Level Fort Worth Center
Sun 05:54:47 PM 33.0444 -98.0800 282° West 403 464 27,100 1,450 Climbing Fort Worth Center
Sun 05:55:47 PM 33.0686 -98.2167 282° West 413 475 28,400 1,350 Climbing Fort Worth Center
Sun 05:56:47 PM 33.0928 -98.3533 282° West 418 481 29,800 1,700 Climbing Fort Worth Center
Sun 05:57:47 PM 33.1147 -98.4825 282° West 418 481 31,800 1,750 Climbing Fort Worth Center
Sun 05:58:47 PM 33.1408 -98.6117 284° West 405 466 33,300 1,100 Climbing Fort Worth Center
Sun 05:59:47 PM 33.1644 -98.7461 282° West 411 473 34,000 350 Climbing Fort Worth Center
Sun 06:00:47 PM 33.1858 -98.8756 281° West 411 473 34,000  Level Fort Worth Center
Sun 06:01:47 PM 33.2094 -99.0050 282° West 406 467 34,000  Level Fort Worth Center
Sun 06:02:47 PM 33.2306 -99.1319 281° West 406 467 34,000 450 Level Fort Worth Center
Sun 06:03:47 PM 33.2539 -99.2617 282° West 406 467 34,900 1,000 Climbing Fort Worth Center
Sun 06:04:47 PM 33.2747 -99.3911 281° West 406 467 36,000 550 Climbing Fort Worth Center
Sun 06:05:47 PM 33.2978 -99.5161 282° West 400 460 36,000  Level Fort Worth Center
Sun 06:06:47 PM 33.3186 -99.6458 281° West 400 460 36,000  Level Fort Worth Center
Sun 06:07:47 PM 33.3431 -99.7881 282° West 395 455 36,000  Level Fort Worth Center
Sun 06:08:47 PM 33.3636 -99.9156 281° West 395 455 36,000 -1,400 Level Fort Worth Center
Sun 06:09:47 PM 33.3858 -100.0456 282° West 395 455 33,200 -2,700 Descending Fort Worth Center
Sun 06:10:47 PM 33.4061 -100.1781 280° West 395 455 30,600 -2,500 Descending Fort Worth Center
Sun 06:11:47 PM 33.4281 -100.3081 281° West 395 455 28,200 -2,400 Descending Fort Worth Center
Sun 06:12:47 PM 33.4481 -100.4358 281° West 400 460 25,800 -2,350 Descending Fort Worth Center
Sun 06:13:47 PM 33.4703 -100.5561 283° West 388 447 23,500 -2,198 Descending Fort Worth Center
Sun 06:14:58 PM 33.4875 -100.6986 278° West 362 417 21,000 -2,167 Descending Fort Worth Center
Sun 06:16:11 PM 33.5086 -100.8414 280° West 357 411 18,300 -2,092 Descending Fort Worth Center
Sun 06:16:47 PM 33.5239 -100.8967 288° West 368 423 17,200 -2,188 Descending Fort Worth Center
Sun 06:17:47 PM 33.5453 -101.0222 282° West 356 410 14,800 -2,150 Descending Fort Worth Center
Sun 06:18:47 PM 33.5592 -101.1200 280° West 341 392 12,900 -1,950 Descending Fort Worth Center
Sun 06:19:47 PM 33.5764 -101.2403 280° West 335 386 10,900 -1,650 Descending Fort Worth Center
Sun 06:20:47 PM 33.5883 -101.3281 279° West 314 361 9,600 -1,550 Descending Fort Worth Center
Sun 06:21:47 PM 33.6269 -101.4272 295° West 299 344 7,800 -1,350 Descending Fort Worth Center
Sun 06:22:47 PM 33.6597 -101.5061 297° West 294 338 6,900 -600 Descending Fort Worth Center
Sun 06:23:47 PM 33.7097 -101.5733 312° West 266 306 6,600 -700 Descending Fort Worth Center
Sun 06:24:47 PM 33.7500 -101.6203 316° Northwest 231 266 5,500 -800 Descending Fort Worth Center
Sun 06:25:47 PM 33.8022 -101.6778 318° Northwest 225 259 5,000 -250 Descending Fort Worth Center
Sun 06:26:47 PM 33.8211 -101.7386 291° West 225 259 5,000  Level Fort Worth Center
Sun 06:27:47 PM 33.8142 -101.8133 264° West 209 241 5,000  Level Fort Worth Center
Sun 06:28:47 PM 33.7678 -101.8308 197° South 175 201 5,000 -500 Level Fort Worth Center
Sun 06:29:47 PM 33.7197 -101.8308 180° South 159 183 4,000 -1,000 Descending Fort Worth Center
Sun 06:31:00 PM 33.6637 -101.8206 220° Southwest  Level Estimated
Sun 06:38:00 PM 33.6637 -101.8206 220° Southwest  Level Estimated
Sun 06:39:00 PM 33.6637 -101.8206 220° Southwest  Level Estimated

Login

Don't have an account? Register now (free) for customized features, flight alerts, and more!